Location: Entraunes
(44.1815°N, 6.7509°E)
Time: 05:30:18
(UTC+00:00)

Daily predictions for brighter satellites

Satellite Brightness Start Highest point End
(mag) Time Altitude Azimuth Time Altitude Azimuth Time Altitude Azimuth
Geosat 4.1 00:05:21 61° W 00:05:21 61° W 00:10:02 10° NNW
Cosmos 2360 Rocket 3.8 00:05:56 10° NW 00:09:32 21° W 00:09:32 21° W
Nadezhda 1 Rocket 4.0 00:03:45 10° N 00:10:12 89° E 00:11:32 60° S
Cosmos 1666 3.6 00:12:13 48° NNE 00:12:13 48° NNE 00:15:07 10° NNE
Cosmos 1862 Rocket 3.9 00:08:28 10° NNW 00:12:10 57° NW 00:12:10 57° NW
Cosmos 1980 4.2 00:07:47 10° NNW 00:13:22 55° ENE 00:15:18 37° ESE
Cosmos 1386 Rocket 4.4 00:13:24 61° S 00:14:40 88° W 00:21:08 10° N
Resurs 1-4 Rocket 3.5 00:13:45 10° NE 00:18:11 26° E 00:19:09 25° ESE
USA 229 DEB 3.8 00:10:48 10° NW 00:18:11 82° SW 00:21:08 42° SSE
USA 229 3.8 00:10:54 10° NW 00:18:17 83° SW 00:21:16 42° SSE
Cosmos 2322 4.4 00:13:54 10° NW 00:18:54 39° W 00:18:54 39° W
Lacrosse 5 3.2 00:21:12 27° ESE 00:21:12 27° ESE 00:24:32 10° ENE
Cosmos 1110 Rocket 4.1 00:18:24 10° NNW 00:23:33 59° W 00:23:33 59° W
Cosmos 1703 Rocket 3.9 00:22:34 10° N 00:26:49 58° ENE 00:26:49 58° ENE
Meteor 1-14 Rocket 4.2 00:26:17 60° WSW 00:26:58 66° WNW 00:32:32 10° N
Cosmos 2297 Rocket 2.3 00:31:41 56° SE 00:32:21 61° ESE 00:37:56 10° NNE
Cosmos 1331 Rocket 4.3 00:28:49 10° NNW 00:33:42 52° W 00:33:42 52° W
Cosmos 1536 3.7 00:35:31 43° ENE 00:35:31 43° ENE 00:39:00 10° NNE
Cosmos 2237 Rocket 2.2 00:32:02 10° NNW 00:37:44 79° ENE 00:39:17 49° SE
NOSS 3-1 (A) 4.1 00:30:59 10° NW 00:38:35 67° WSW 00:41:59 40° S
Meteor 1-13 Rocket 4.4 00:33:05 10° N 00:38:55 71° ENE 00:40:27 49° SE
CZ-4 R/B 3.8 00:34:10 10° NNE 00:39:10 76° ESE 00:39:36 70° SSE
ARGOS Delta rocket 3.6 00:35:07 10° NNE 00:39:54 84° E 00:40:01 82° SE
BREEZE-M DEB (TANK) 3.2 00:33:02 10° W 00:40:21 81° NNW 00:43:32 10° ENE
Cosmos 2181 Rocket 4.4 00:35:15 10° N 00:41:34 59° ENE 00:44:07 35° SE
Cosmos 2227 Rocket 2.4 00:42:17 50° SE 00:43:08 56° ESE 00:48:39 10° NNE
Cosmos 909 Rocket 4.4 00:41:37 46° SSE 00:43:12 57° ESE 00:50:23 10° NE
EO 1 Del DPAF 4.1 00:43:00 10° N 00:45:57 41° NW 00:45:57 41° NW
TSX-5 4.1 00:50:00 59° NNW 00:50:00 59° NNW 00:53:50 10° NNE
Cosmos 2242 Rocket 3.5 00:45:56 10° N 00:50:12 77° WNW 00:50:12 77° WNW
Cosmos 1544 3.7 00:52:00 54° NE 00:52:00 54° NE 00:54:58 10° NNE
ASTEX 1 3.3 00:51:42 67° SSE 00:52:20 82° E 00:57:16 10° N
Meteor 2-4 Rocket 4.3 00:47:44 10° NNW 00:53:21 44° W 00:54:04 42° WSW
CZ-2D R/B 2.5 00:50:29 10° NNE 00:55:46 54° E 00:57:06 43° SSE
ADEOS II 3.5 00:54:30 10° NE 00:59:01 28° E 01:01:02 22° SE
COSMOS 2428 4.0 00:56:21 10° NW 01:00:22 25° W 01:00:22 25° W
SL-16 R/B 3.2 00:55:53 10° NNW 01:01:19 45° ENE 01:06:43 10° SE
Cosmos 1269 Rocket 4.1 01:00:30 53° WSW 01:01:26 63° WNW 01:06:42 10° NNE
Cosmos 2219 Rocket 3.9 01:03:22 10° WNW 01:06:12 17° W 01:06:12 17° W
Timation 1 Rocket 4.4 01:06:26 48° S 01:08:02 69° ESE 01:14:00 10° NNE
Cosmos 2263 Rocket 4.3 01:07:40 12° SE 01:10:33 17° E 01:14:04 10° ENE
Cosmos 1869 Rocket 3.4 01:11:10 72° SW 01:11:30 78° W 01:16:00 10° N
STPSAT 2 (USA 217) 4.5 01:12:20 10° NNW 01:16:57 87° WSW 01:17:44 61° SSE
Cosmos 1743 2.6 01:19:32 88° ENE 01:19:32 88° ENE 01:23:22 10° N
Cosmos 1340 Rocket 4.1 01:20:53 27° WNW 01:20:53 27° WNW 01:24:07 10° NNW
Cosmos 1992 Rocket 3.9 01:18:23 10° NNW 01:23:39 89° WSW 01:25:38 39° SSE
NOSS 2-2 (E) 4.5 01:18:40 10° NW 01:24:20 73° SW 01:32:19 10° SSE
Helios 1A 3.9 01:27:31 34° W 01:27:31 34° W 01:30:58 10° NNW
Cosmos 2221 Rocket 4.0 01:25:22 10° N 01:29:53 63° E 01:31:41 35° SSE
Okean 3 3.7 01:25:56 10° NNW 01:30:06 50° W 01:30:10 50° W
Cosmos 2219 3.5 01:28:52 39° WSW 01:30:49 59° WNW 01:36:31 10° NNE
Okean 1-7 4.2 01:27:15 10° NNW 01:30:27 27° WNW 01:30:27 27° WNW
Timation 2 Rocket 3.8 01:31:17 42° SW 01:33:28 81° WNW 01:39:36 10° NNE
Cosmos 1975 3.9 01:34:17 29° SE 01:35:40 39° E 01:39:30 10° NNE
Cosmos 2344 4.3 01:34:47 22° SSE 01:38:55 39° ESE 01:45:49 10° NE
Cosmos 1461 4.4 01:39:45 26° SE 01:41:05 30° ESE 01:45:02 10° NE
UNK 3.8 01:41:38 48° SSW 01:42:38 60° W 01:47:17 10° NNW
Cosmos 1238 Rocket 3.7 01:43:34 27° ESE 01:44:15 30° E 01:47:13 10° NNE
SL-16 R/B 2.6 01:44:51 34° SSW 01:47:23 56° WSW 01:53:28 10° NNW
Cosmos 1674 Rocket 4.2 01:43:15 10° N 01:47:36 54° E 01:50:25 21° SSE
Cosmos 2184 Rocket 3.9 01:45:02 34° SSW 01:47:55 78° W 01:54:14 10° N
Helios 1B rocket 2.4 01:44:49 10° N 01:48:55 72° WNW 01:49:49 51° SW
ATLAS 5 CENTAUR R/B 3.2 01:44:46 10° WNW 01:49:50 30° WSW 01:50:05 30° WSW
IDEFIX/ARIANE 42P 3.4 01:45:03 10° NNE 01:50:01 44° E 01:53:13 20° SSE
Cosmos 2082 3.7 01:48:53 37° SSW 01:51:16 84° WNW 01:57:02 10° NNE
Cosmos 2154 Rocket 4.0 01:51:27 28° S 01:54:59 83° E 02:01:13 10° N
Meteor 1-29 3.0 01:52:40 10° NNE 01:55:58 67° ESE 01:56:32 53° SSE
Cosmos 2251 Rocket 3.5 01:54:37 37° SW 01:56:43 75° WNW 02:02:02 10° NNE
Resurs 1-4 Rocket 2.7 01:53:09 10° N 01:58:09 43° WNW 02:00:13 30° WSW
Cosmos 1842 3.1 01:56:21 10° N 02:00:14 82° W 02:01:27 42° S
Lacrosse 5 2.2 02:00:23 28° WSW 02:02:56 58° NW 02:07:57 10° NE
Cosmos 2084 Rocket 4.2 02:00:01 10° NW 02:03:25 33° WSW 02:03:25 33° WSW
Cosmos 1378 Rocket 3.6 02:04:34 10° N 02:08:58 80° E 02:11:51 21° SSE
ADEOS Rocket 3.1 02:08:20 29° SSW 02:10:53 47° W 02:16:10 10° NNW
Meteor 1-21 4.3 02:05:28 10° N 02:11:17 85° E 02:16:48 11° S
Cosmos 2074 Rocket 4.3 02:09:08 28° SW 02:12:11 50° WNW 02:18:14 10° N
MSX 4.4 02:07:40 10° NNE 02:13:18 54° E 02:17:59 15° S
Cosmos 1908 Rocket 3.9 02:13:40 22° S 02:16:22 62° E 02:20:39 10° NNE
Cosmos 2297 Rocket 3.8 02:13:28 15° W 02:16:50 24° NW 02:21:24 10° N
NPP 4.4 02:12:05 10° N 02:17:02 38° WNW 02:19:38 24° WSW
Cosmos 1140 Rocket 3.7 02:14:51 23° S 02:18:05 68° ESE 02:23:19 10° NNE
Cosmos 2237 Rocket 3.8 02:17:48 10° WNW 02:21:03 16° W 02:21:04 16° W
Cosmos 1356 Rocket 3.3 02:20:09 27° S 02:22:15 84° E 02:26:17 10° NNE
SL-8 R/B 3.9 02:21:22 29° SSW 02:23:35 56° SSE 02:28:18 10° ENE
Cosmos 1733 Rocket 3.7 02:22:04 28° WSW 02:23:44 40° WNW 02:27:57 10° N
DELTA 2 DEB (DPAF) 4.1 02:22:42 20° S 02:25:43 67° WSW 02:30:08 10° NNW
NOSS 3-3 (A) 4.1 02:22:16 22° SSW 02:25:58 62° ESE 02:32:17 10° NE
NOSS 3-3 (C) 4.1 02:22:23 22° SSW 02:26:05 62° ESE 02:32:23 10° NE
Cosmos 2227 Rocket 3.6 02:24:05 15° W 02:27:32 26° NW 02:32:14 10° N
Cosmos 1603 4.4 02:22:54 10° NNW 02:28:26 55° ENE 02:33:57 10° SE
ARIANE 5 R/B 3.4 02:24:10 10° NNE 02:29:10 47° E 02:34:09 10° S
Cosmos 1674 4.1 02:26:50 10° N 02:30:27 38° ENE 02:34:03 10° SSE
IKONOS-2 4.5 02:27:26 11° SSE 02:31:32 89° W 02:35:50 10° NNW
SL-8 Rocket 4.3 02:26:25 10° S 02:32:31 65° E 02:38:37 10° NNE
Cosmos 44 3.9 02:28:22 10° NNW 02:33:38 65° NE 02:38:33 10° SE
CZ-2D R/B 3.6 02:31:19 10° NNW 02:35:26 23° WNW 02:38:25 15° WSW
EP 1 4.5 02:35:34 33° SW 02:36:51 85° NW 02:39:35 10° NE
ADEOS II 2.8 02:33:54 10° N 02:38:47 40° WNW 02:41:58 20° SW
SWARM A 4.4 02:40:28 27° SSW 02:42:01 54° W 02:45:17 10° N
Okean 2 3.8 02:38:21 10° NNW 02:42:21 45° W 02:44:58 19° SSW
IRS-1D 3.9 02:39:19 10° N 02:44:02 46° WNW 02:47:17 19° SW
Cosmos 2227 4.2 02:39:56 17° SSW 02:44:18 81° ESE 02:49:57 10° NNE
SL-16 R/B 3.1 02:40:24 10° NW 02:45:12 29° WSW 02:48:30 17° SSW
CZ-4C R/B 3.4 02:41:44 10° S 02:45:42 71° WSW 02:49:58 10° NNW
IRS-1C 4.2 02:40:59 10° NNE 02:46:22 83° ESE 02:51:21 12° SSW
CZ-4C R/B 3.0 02:39:34 10° NW 02:46:57 81° SW 02:55:27 10° SSE
CZ-2D R/B 4.1 02:47:36 10° NNE 02:51:31 51° E 02:55:28 10° S
Iridium 4 Rocket 4.4 02:47:22 10° NNW 02:52:23 37° W 02:56:32 15° SW
Cosmos 2263 Rocket 2.2 02:49:22 17° SSW 02:53:47 74° WNW 02:59:31 10° NNE
Cosmos 676 Rocket 4.3 02:51:25 11° S 02:56:29 72° ESE 03:01:50 10° NNE
Cosmos 2341 Rocket 4.1 02:51:57 13° SSW 02:57:37 66° W 03:03:49 10° N
Cosmos 1782 Rocket 3.5 02:54:46 12° S 02:58:49 84° W 03:03:13 10° N
Cosmos 2218 Rocket 4.1 02:54:02 10° S 03:00:26 88° E 03:06:48 10° N
CZ-2C R/B 4.4 02:59:57 10° NNE 03:03:18 31° E 03:06:38 10° SSE
Cosmos 407 Rocket 4.1 03:00:28 15° SW 03:04:33 45° WNW 03:09:37 10° N
Cosmos 1727 Rocket 4.5 02:59:47 10° N 03:05:59 65° E 03:12:12 10° SSE
GEOS 3 Rocket 3.6 03:02:46 10° SSE 03:08:07 76° SW 03:13:28 10° NW
Cosmos 1805 3.4 03:06:14 10° S 03:10:06 75° E 03:14:01 10° NNE
ATLAS CENTAUR R/B 1.1 03:09:13 14° SW 03:12:23 87° NW 03:16:22 10° NE
ALOS 3.5 03:10:11 10° NNE 03:14:38 41° E 03:19:02 10° S
KORONAS-FOTON 3.9 03:11:10 10° NNW 03:15:01 58° W 03:18:51 10° S
Cosmos 1346 Rocket 4.5 03:14:13 10° N 03:17:52 36° ENE 03:21:29 10° SE
USA 215 3.5 03:12:34 10° NE 03:19:06 69° SE 03:25:37 10° SW
Cosmos 1763 Rocket 4.1 03:13:55 10° NNW 03:19:13 63° ENE 03:24:28 10° SSE
Cosmos 1461 4.0 03:16:06 11° WSW 03:20:05 36° NW 03:24:13 10° NNE
SL-14 R/B 4.0 03:17:56 10° N 03:21:47 56° E 03:25:37 10° SSE
Cosmos 1707 4.2 03:19:09 10° NW 03:22:00 20° W 03:24:46 10° SW
SL-08 R/B 3.5 03:19:14 10° S 03:24:04 56° W 03:28:58 10° NNW
Cosmos 1943 3.3 03:19:39 10° NNW 03:25:14 56° WSW 03:30:46 10° S
Cosmos 1726 4.4 03:24:39 10° SE 03:27:39 25° E 03:30:43 10° NE
IDEFIX/ARIANE 42P 3.8 03:25:08 10° N 03:29:21 26° WNW 03:33:32 10° WSW
SL-24 R/B - RUBIN 2 3.7 03:28:59 10° NW 03:34:00 75° WSW 03:38:27 10° SSE
Cosmos 1733 3.3 03:34:21 10° SSW 03:38:08 58° W 03:41:56 10° N
Cosmos 1766 3.2 03:34:50 10° SSW 03:38:43 78° W 03:42:38 10° N
CZ-2C R/B 2.3 03:34:12 10° N 03:38:46 73° WNW 03:43:21 10° SSW
Cosmos 1300 Rocket 3.5 03:35:24 10° SSW 03:39:42 70° W 03:44:04 10° N
Cosmos 1470 4.5 03:36:20 10° SSE 03:39:56 35° E 03:43:32 10° NNE
